When you browse on this site, cookies collect data to enhance your experience and personalize the content and advertising you see.
Visit our Privacy Policy to learn more. By continuing to use the site, you agree to this use of cookies and data.
  • In Germany
  • List of Countries
  • For 7 days
  • Water Temperature
  • Weather Map
  • Weather Widgets
  • user-avatar
    Login

    Hourly Weather Norwich

    Today, 23 September, Monday

    Time Temperature Precipitation Wind Pressure Humidity
    00:00 +15°C° 0 mm 4 mps 753 mmHg 83%
    01:00 +15°C° 0 mm 4 mps 752 mmHg 85%
    02:00 +14°C° 0 mm 4 mps 752 mmHg 86%
    03:00 +14°C° 0 mm 4 mps 752 mmHg 87%
    04:00 +14°C° 0 mm 4 mps 753 mmHg 89%
    05:00 +13°C° 0 mm 4 mps 753 mmHg 91%
    06:00 +13°C° 0 mm 3 mps 754 mmHg 94%
    07:00 +14°C° 0 mm 4 mps 754 mmHg 89%
    08:00 +15°C° 0 mm 5 mps 754 mmHg 84%
    09:00 +16°C° 0 mm 5 mps 755 mmHg 79%
    10:00 +17°C° 0 mm 5 mps 755 mmHg 72%
    11:00 +19°C° 0 mm 5 mps 755 mmHg 65%
    12:00 +20°C° 0 mm 5 mps 755 mmHg 58%
    13:00 +20°C° 0 mm 5 mps 755 mmHg 56%
    14:00 +20°C° 0 mm 5 mps 755 mmHg 54%
    15:00 +21°C° 0 mm 5 mps 755 mmHg 52%
    16:00 +20°C° 0 mm 5 mps 755 mmHg 57%
    17:00 +19°C° 0 mm 5 mps 755 mmHg 63%
    18:00 +17°C° 0 mm 5 mps 755 mmHg 68%
    19:00 +16°C° 0.2 mm 6 mps 755 mmHg 73%
    20:00 +16°C° 0.2 mm 6 mps 755 mmHg 79%
    21:00 +15°C° 0.2 mm 7 mps 755 mmHg 84%
    22:00 +15°C° 0.1 mm 7 mps 754 mmHg 85%
    23:00 +15°C° 0.1 mm 7 mps 754 mmHg 85%

    Tomorrow, 24 September, Tuesday

    Time Temperature Precipitation Wind Pressure Humidity
    00:00 +16°C° 0.1 mm 7 mps 754 mmHg 85%
    01:00 +16°C° 0.1 mm 7 mps 753 mmHg 87%
    02:00 +16°C° 0.1 mm 6 mps 752 mmHg 89%
    03:00 +16°C° 0.1 mm 6 mps 752 mmHg 91%
    04:00 +16°C° 0.6 mm 6 mps 751 mmHg 90%
    05:00 +16°C° 0.6 mm 6 mps 751 mmHg 90%
    06:00 +17°C° 0.6 mm 6 mps 750 mmHg 90%
    07:00 +17°C° 0.3 mm 7 mps 750 mmHg 89%
    08:00 +17°C° 0.3 mm 7 mps 750 mmHg 88%
    09:00 +17°C° 0.3 mm 7 mps 749 mmHg 87%
    10:00 +17°C° 0.3 mm 8 mps 749 mmHg 86%
    11:00 +17°C° 0.3 mm 8 mps 748 mmHg 86%
    12:00 +16°C° 0.3 mm 9 mps 748 mmHg 85%
    13:00 +16°C° 1.2 mm 8 mps 747 mmHg 87%
    14:00 +16°C° 1.2 mm 7 mps 747 mmHg 88%
    15:00 +16°C° 1.2 mm 6 mps 747 mmHg 90%
    16:00 +16°C° 0.8 mm 6 mps 746 mmHg 88%
    17:00 +16°C° 0.8 mm 5 mps 746 mmHg 87%
    18:00 +17°C° 0.8 mm 4 mps 746 mmHg 86%
    19:00 +15°C° 0 mm 5 mps 747 mmHg 85%
    20:00 +14°C° 0 mm 5 mps 747 mmHg 85%
    21:00 +14°C° 0 mm 5 mps 747 mmHg 85%
    22:00 +13°C° 0 mm 5 mps 747 mmHg 87%
    23:00 +13°C° 0 mm 4 mps 747 mmHg 89%

    Day after tomorrow, 25 September, Wednesday

    Time Temperature Precipitation Wind Pressure Humidity
    00:00 +13°C° 0 mm 4 mps 747 mmHg 91%
    01:00 +13°C° 0 mm 4 mps 747 mmHg 90%
    02:00 +13°C° 0 mm 4 mps 747 mmHg 90%
    03:00 +13°C° 0 mm 4 mps 746 mmHg 89%
    04:00 +13°C° 0.2 mm 4 mps 746 mmHg 90%
    05:00 +14°C° 0.2 mm 4 mps 746 mmHg 91%
    06:00 +14°C° 0.2 mm 4 mps 746 mmHg 92%
    07:00 +15°C° 0 mm 4 mps 746 mmHg 87%
    08:00 +15°C° 0 mm 4 mps 746 mmHg 83%
    09:00 +17°C° 0 mm 4 mps 746 mmHg 78%
    10:00 +18°C° 0.2 mm 3 mps 746 mmHg 76%
    11:00 +18°C° 0.2 mm 2 mps 746 mmHg 74%
    12:00 +19°C° 0.2 mm 2 mps 746 mmHg 72%
    13:00 +18°C° 0.1 mm 2 mps 746 mmHg 74%
    14:00 +18°C° 0.1 mm 2 mps 746 mmHg 75%
    15:00 +18°C° 0.1 mm 2 mps 747 mmHg 76%
    16:00 +18°C° 0 mm 2 mps 747 mmHg 79%
    17:00 +17°C° 0 mm 2 mps 747 mmHg 83%
    18:00 +16°C° 0 mm 1 mps 748 mmHg 86%
    19:00 +16°C° 0 mm 2 mps 748 mmHg 88%
    20:00 +15°C° 0 mm 2 mps 748 mmHg 90%
    21:00 +15°C° 0 mm 2 mps 749 mmHg 91%
    22:00 +14°C° 0 mm 3 mps 749 mmHg 92%
    23:00 +13°C° 0 mm 3 mps 749 mmHg 93%

    26 September, Thursday

    Time Temperature Precipitation Wind Pressure Humidity
    00:00 +13°C° 0 mm 3 mps 749 mmHg 94%
    01:00 +13°C° 0 mm 4 mps 749 mmHg 94%
    02:00 +13°C° 0 mm 4 mps 749 mmHg 94%
    03:00 +13°C° 0 mm 4 mps 749 mmHg 94%
    04:00 +14°C° 0.2 mm 4 mps 749 mmHg 94%
    05:00 +14°C° 0.2 mm 5 mps 749 mmHg 94%
    06:00 +15°C° 0.2 mm 5 mps 749 mmHg 94%
    07:00 +16°C° 0.1 mm 5 mps 750 mmHg 93%
    08:00 +16°C° 0.1 mm 5 mps 750 mmHg 91%
    09:00 +17°C° 0.1 mm 5 mps 750 mmHg 90%
    10:00 +17°C° 0.3 mm 6 mps 750 mmHg 84%
    11:00 +18°C° 0.3 mm 7 mps 750 mmHg 79%
    12:00 +20°C° 0.3 mm 8 mps 751 mmHg 74%
    13:00 +18°C° 0.5 mm 7 mps 751 mmHg 75%
    14:00 +18°C° 0.5 mm 7 mps 750 mmHg 76%
    15:00 +17°C° 0.5 mm 6 mps 750 mmHg 78%
    16:00 +16°C° 0.1 mm 5 mps 751 mmHg 78%
    17:00 +15°C° 0.1 mm 5 mps 751 mmHg 78%
    18:00 +14°C° 0.1 mm 4 mps 751 mmHg 77%
    19:00 +14°C° 0 mm 4 mps 751 mmHg 79%
    20:00 +14°C° 0 mm 4 mps 752 mmHg 80%
    21:00 +13°C° 0 mm 4 mps 752 mmHg 81%
    22:00 +13°C° 0 mm 4 mps 752 mmHg 82%
    23:00 +12°C° 0 mm 5 mps 752 mmHg 83%

    27 September, Friday

    Time Temperature Precipitation Wind Pressure Humidity
    00:00 +12°C° 0 mm 5 mps 752 mmHg 84%
    01:00 +12°C° 0 mm 5 mps 752 mmHg 85%
    02:00 +10°C° 0 mm 5 mps 752 mmHg 85%
    03:00 +10°C° 0 mm 5 mps 752 mmHg 86%
    04:00 +10°C° 0 mm 5 mps 752 mmHg 87%
    05:00 +10°C° 0 mm 5 mps 752 mmHg 87%
    06:00 +10°C° 0 mm 5 mps 752 mmHg 87%
    07:00 +11°C° 0 mm 6 mps 752 mmHg 82%
    08:00 +13°C° 0 mm 6 mps 752 mmHg 77%
    09:00 +14°C° 0 mm 7 mps 752 mmHg 72%
    10:00 +15°C° 0 mm 7 mps 752 mmHg 68%
    11:00 +17°C° 0 mm 7 mps 751 mmHg 64%
    12:00 +18°C° 0 mm 8 mps 751 mmHg 60%
    13:00 +17°C° 0.2 mm 8 mps 751 mmHg 61%
    14:00 +17°C° 0.2 mm 8 mps 751 mmHg 62%
    15:00 +17°C° 0.2 mm 8 mps 751 mmHg 64%
    16:00 +16°C° 0.1 mm 8 mps 751 mmHg 66%
    17:00 +16°C° 0.1 mm 7 mps 751 mmHg 69%
    18:00 +15°C° 0.1 mm 7 mps 751 mmHg 72%
    19:00 +14°C° 0 mm 7 mps 751 mmHg 74%
    20:00 +14°C° 0 mm 7 mps 751 mmHg 76%
    21:00 +12°C° 0 mm 7 mps 751 mmHg 78%
    22:00 +12°C° 0 mm 7 mps 751 mmHg 79%
    23:00 +11°C° 0 mm 7 mps 751 mmHg 80%

    28 September, Saturday

    Time Temperature Precipitation Wind Pressure Humidity
    00:00 +11°C° 0 mm 7 mps 751 mmHg 82%
    01:00 +11°C° 0 mm 8 mps 751 mmHg 83%
    02:00 +11°C° 0 mm 8 mps 751 mmHg 84%
    03:00 +10°C° 0 mm 8 mps 751 mmHg 85%
    04:00 +10°C° 0 mm 8 mps 751 mmHg 85%
    05:00 +10°C° 0 mm 8 mps 751 mmHg 84%
    06:00 +10°C° 0 mm 8 mps 751 mmHg 84%
    07:00 +11°C° 0 mm 9 mps 751 mmHg 80%
    08:00 +12°C° 0 mm 9 mps 751 mmHg 75%
    09:00 +13°C° 0 mm 9 mps 752 mmHg 70%
    10:00 +15°C° 0 mm 9 mps 752 mmHg 68%
    11:00 +16°C° 0 mm 9 mps 752 mmHg 66%
    12:00 +16°C° 0 mm 9 mps 752 mmHg 64%
    13:00 +16°C° 0.2 mm 9 mps 752 mmHg 64%
    14:00 +16°C° 0.2 mm 8 mps 752 mmHg 64%
    15:00 +16°C° 0.2 mm 8 mps 752 mmHg 64%
    16:00 +15°C° 0.1 mm 8 mps 752 mmHg 68%
    17:00 +15°C° 0.1 mm 7 mps 752 mmHg 72%
    18:00 +14°C° 0.1 mm 7 mps 752 mmHg 76%
    19:00 +12°C° 0 mm 7 mps 752 mmHg 79%
    20:00 +12°C° 0 mm 7 mps 752 mmHg 81%
    21:00 +12°C° 0 mm 7 mps 753 mmHg 83%
    22:00 +11°C° 0 mm 6 mps 752 mmHg 84%
    23:00 +11°C° 0 mm 6 mps 752 mmHg 86%
    Show more